This is the latest recevied weather packets stored in our database for station/object N0MR. If no packets are shown the sender has not sent any weather packets the latest 10 day(s).
| Time | Temp. | Humidity | Pressure | Rain* | Wind** | Luminosity | Snow |
|---|---|---|---|---|---|---|---|
| 1788635976 | 20.56° C | 85% | 1018.6 hPa | 0 mm | - | - | - |
| 1788634175 | 19.44° C | 88% | 1018.9 hPa | 0 mm | - | - | - |
| 1788633567 | 19.44° C | 92% | 1019 hPa | 0 mm | - | - | - |
| 1788632965 | 19.44° C | 92% | 1019 hPa | 0 mm | - | - | - |
| 1788632365 | 18.89° C | 92% | 1018.9 hPa | 0 mm | - | - | - |
| 1788631165 | 18.33° C | 92% | 1018.9 hPa | 0 mm | - | - | - |
| 1788630566 | 18.33° C | 92% | 1018.9 hPa | 0 mm | - | - | - |
| 1788629966 | 17.78° C | 94% | 1019.1 hPa | 0 mm | - | - | - |
| 1788629369 | 17.78° C | 94% | 1019.1 hPa | 0 mm | - | - | - |
| 1788628767 | 17.78° C | 95% | 1018.9 hPa | 0 mm | - | - | - |
| 1788628166 | 17.78° C | 95% | 1018.9 hPa | 0 mm | - | - | - |
| 1788627566 | 17.22° C | 96% | 1019.1 hPa | 0 mm | - | - | - |
| 1788626969 | 17.22° C | 96% | 1019.1 hPa | 0 mm | - | - | - |
| 1788626367 | 16.67° C | 97% | 1019.3 hPa | 0 mm | - | - | - |
| 1788625766 | 16.67° C | 97% | 1019.3 hPa | 0 mm | - | - | - |
| 1788625167 | 16.67° C | 97% | 1019 hPa | 0 mm | - | - | - |
| 1788624567 | 16.67° C | 97% | 1019 hPa | 0 mm | - | - | - |
| 1788617368 | 15° C | 98% | 1018.6 hPa | 0 mm | - | - | - |
| 1788616767 | 15° C | 98% | 1018.6 hPa | 0 mm | - | - | - |
| 1788610768 | 14.44° C | 97% | 1016.9 hPa | 0 mm | - | - | - |
| 1788610170 | 14.44° C | 97% | 1016.9 hPa | 0 mm | - | - | - |
| 1788609570 | 13.89° C | 97% | 1016.8 hPa | 0 mm | - | - | - |
| 1788608972 | 13.89° C | 97% | 1016.8 hPa | 0 mm | - | - | - |
| 1788608368 | 13.89° C | 97% | 1016.8 hPa | 0 mm | - | - | - |
| 1788607169 | 13.89° C | 97% | 1016.8 hPa | 0 mm | - | - | - |
* Rain latest hour (hover to see other rain measurements)
** Current wind speed in m/s (hover to see current wind gust speed)